Wetterdaten: Donnerstag, 19.05.2016
Datum Zeit Auen-Temp. Temp gefhlt Luftfeuchte Luftdruck Regen Wind Richtung Richtung Sonnenschein Taupunkt Windben
19.05.2016 00:00 8,0 C 7,8 C 80 % 1009,4 hPa 0,0 mm 0,0 km/h (0 Bft) W-NW 292 0 min 4,8 C 0,0 km/h (0 Bft)
19.05.2016 00:05 8,2 C 8,0 C 80 % 1009,4 hPa 0,0 mm 0,9 km/h (0 Bft) N 360 0 min 5,0 C 0,0 km/h (0 Bft)
19.05.2016 00:10 8,0 C 7,9 C 80 % 1009,4 hPa 0,0 mm 0,9 km/h (0 Bft) NO 45 0 min 4,8 C 0,0 km/h (0 Bft)
19.05.2016 00:15 7,8 C 7,7 C 80 % 1009,4 hPa 0,0 mm 0,0 km/h (0 Bft) NO 45 0 min 4,6 C 0,0 km/h (0 Bft)
19.05.2016 00:20 7,9 C 7,8 C 80 % 1009,4 hPa 0,0 mm 0,0 km/h (0 Bft) O-NO 67 0 min 4,7 C 0,0 km/h (0 Bft)
19.05.2016 00:25 8,0 C 7,8 C 80 % 1009,4 hPa 0,0 mm 0,0 km/h (0 Bft) O-NO 67 0 min 4,8 C 0,0 km/h (0 Bft)
19.05.2016 00:30 7,9 C 7,8 C 81 % 1009,4 hPa 0,0 mm 0,0 km/h (0 Bft) SO 135 0 min 4,8 C 0,0 km/h (0 Bft)
19.05.2016 00:35 8,0 C 7,9 C 80 % 1009,3 hPa 0,0 mm 0,0 km/h (0 Bft) W-NW 292 0 min 4,8 C 0,0 km/h (0 Bft)
19.05.2016 00:40 8,1 C 8,0 C 80 % 1009,3 hPa 0,0 mm 0,3 km/h (0 Bft) O-SO 112 0 min 4,9 C 0,0 km/h (0 Bft)
19.05.2016 00:45 8,5 C 8,3 C 80 % 1009,3 hPa 0,0 mm 1,8 km/h (1 Bft) SO 135 0 min 5,3 C 12,2 km/h (2 Bft)
19.05.2016 00:50 9,0 C 8,8 C 80 % 1009,3 hPa 0,0 mm 6,3 km/h (2 Bft) O 90 0 min 5,7 C 13,7 km/h (3 Bft)
19.05.2016 00:55 9,1 C 8,8 C 79 % 1009,6 hPa 0,0 mm 9,2 km/h (2 Bft) W-NW 292 0 min 5,7 C 21,8 km/h (4 Bft)
19.05.2016 01:00 9,0 C 8,8 C 79 % 1009,6 hPa 0,0 mm 6,6 km/h (2 Bft) S 180 0 min 5,6 C 3,0 km/h (1 Bft)
19.05.2016 01:05 8,8 C 8,6 C 81 % 1009,6 hPa 0,0 mm 1,8 km/h (1 Bft) SW 225 0 min 5,7 C 0,0 km/h (0 Bft)
19.05.2016 01:10 8,7 C 8,5 C 81 % 1009,6 hPa 0,0 mm 1,5 km/h (1 Bft) SO 135 0 min 5,6 C 0,0 km/h (0 Bft)
19.05.2016 01:15 8,5 C 8,3 C 86 % 1009,7 hPa 0,7 mm 3,0 km/h (1 Bft) S-SO 157 0 min 6,3 C 3,3 km/h (1 Bft)
19.05.2016 01:20 8,4 C 8,2 C 86 % 1009,7 hPa 0,0 mm 2,7 km/h (1 Bft) S-SO 157 0 min 6,2 C 0,0 km/h (0 Bft)
19.05.2016 01:25 8,4 C 8,2 C 86 % 1009,7 hPa 0,0 mm 3,6 km/h (1 Bft) S 180 0 min 6,2 C 5,1 km/h (1 Bft)
19.05.2016 01:30 8,4 C 8,2 C 86 % 1009,7 hPa 0,0 mm 3,9 km/h (1 Bft) S 180 0 min 6,2 C 5,1 km/h (1 Bft)
19.05.2016 01:35 8,3 C 8,1 C 86 % 1009,3 hPa 0,0 mm 5,1 km/h (1 Bft) S-SO 157 0 min 6,1 C 7,5 km/h (2 Bft)
19.05.2016 01:40 8,4 C 8,2 C 86 % 1009,3 hPa 0,0 mm 6,6 km/h (2 Bft) SW 225 0 min 6,2 C 8,9 km/h (2 Bft)
19.05.2016 01:45 8,1 C 7,9 C 86 % 1009,3 hPa 0,0 mm 5,1 km/h (1 Bft) S-SO 157 0 min 5,9 C 5,4 km/h (1 Bft)
19.05.2016 01:50 8,1 C 7,9 C 86 % 1009,3 hPa 0,0 mm 4,8 km/h (1 Bft) S 180 0 min 5,9 C 6,6 km/h (2 Bft)
19.05.2016 01:55 8,0 C 7,8 C 87 % 1009,0 hPa 0,0 mm 4,2 km/h (1 Bft) S-SO 157 0 min 6,0 C 3,9 km/h (1 Bft)
19.05.2016 01:56 7,9 C 7,7 C 87 % 1009,0 hPa 0,0 mm 2,1 km/h (1 Bft) S-SO 157 0 min 5,9 C 0,0 km/h (0 Bft)
19.05.2016 02:01 7,9 C 7,7 C 87 % 1009,0 hPa 0,0 mm 2,1 km/h (1 Bft) S-SO 157 0 min 5,9 C 0,0 km/h (0 Bft)
19.05.2016 02:05 8,0 C 7,8 C 87 % 1009,0 hPa 0,0 mm 1,5 km/h (1 Bft) S 180 0 min 6,0 C 5,1 km/h (1 Bft)
19.05.2016 02:10 8,1 C 7,9 C 87 % 1009,0 hPa 0,0 mm 2,1 km/h (1 Bft) SO 135 0 min 6,1 C 0,0 km/h (0 Bft)
19.05.2016 02:15 8,1 C 7,9 C 88 % 1008,8 hPa 0,0 mm 1,2 km/h (1 Bft) SO 135 0 min 6,2 C 0,0 km/h (0 Bft)
19.05.2016 02:20 7,9 C 7,7 C 88 % 1008,8 hPa 0,0 mm 0,3 km/h (0 Bft) O-SO 112 0 min 6,0 C 0,0 km/h (0 Bft)
19.05.2016 02:25 7,8 C 7,6 C 88 % 1008,8 hPa 0,0 mm 0,0 km/h (0 Bft) SW 225 0 min 5,9 C 3,6 km/h (1 Bft)
19.05.2016 02:30 7,9 C 7,7 C 88 % 1008,8 hPa 0,0 mm 0,9 km/h (0 Bft) W-SW 247 0 min 6,0 C 0,0 km/h (0 Bft)
19.05.2016 02:35 7,9 C 7,7 C 88 % 1008,8 hPa 0,0 mm 1,2 km/h (1 Bft) SO 135 0 min 6,0 C 0,0 km/h (0 Bft)
19.05.2016 02:40 7,9 C 7,8 C 88 % 1008,8 hPa 0,0 mm 1,8 km/h (1 Bft) S-SW 202 0 min 6,0 C 6,0 km/h (2 Bft)
19.05.2016 02:45 8,0 C 7,8 C 88 % 1008,8 hPa 0,0 mm 3,3 km/h (1 Bft) S-SW 202 0 min 6,1 C 14,3 km/h (3 Bft)
19.05.2016 02:50 8,2 C 8,0 C 88 % 1008,8 hPa 0,0 mm 4,5 km/h (1 Bft) S-SW 202 0 min 6,3 C 6,3 km/h (2 Bft)
19.05.2016 02:55 8,5 C 8,2 C 88 % 1009,5 hPa 0,0 mm 5,4 km/h (1 Bft) NW 315 0 min 6,6 C 5,7 km/h (1 Bft)
19.05.2016 03:00 8,7 C 8,4 C 88 % 1009,5 hPa 0,0 mm 3,6 km/h (1 Bft) NW 315 0 min 6,8 C 5,7 km/h (1 Bft)
19.05.2016 03:05 8,9 C 8,6 C 87 % 1009,5 hPa 0,0 mm 6,0 km/h (2 Bft) S 180 0 min 6,9 C 9,5 km/h (2 Bft)
19.05.2016 03:10 8,8 C 8,6 C 87 % 1009,5 hPa 0,7 mm 7,2 km/h (2 Bft) S-SW 202 0 min 6,8 C 5,4 km/h (1 Bft)
19.05.2016 03:15 8,7 C 8,5 C 87 % 1009,6 hPa 0,0 mm 5,1 km/h (1 Bft) W 270 0 min 6,7 C 4,2 km/h (1 Bft)
19.05.2016 03:20 8,6 C 8,4 C 87 % 1009,6 hPa 0,0 mm 3,0 km/h (1 Bft) W-NW 292 0 min 6,6 C 0,0 km/h (0 Bft)
19.05.2016 03:25 8,6 C 8,4 C 87 % 1009,6 hPa 0,0 mm 2,1 km/h (1 Bft) W-SW 247 0 min 6,6 C 5,7 km/h (1 Bft)
19.05.2016 03:30 8,6 C 8,4 C 87 % 1009,6 hPa 0,0 mm 1,5 km/h (1 Bft) W 270 0 min 6,6 C 0,0 km/h (0 Bft)
19.05.2016 03:35 8,6 C 8,4 C 87 % 1009,4 hPa 0,0 mm 0,9 km/h (0 Bft) N-NW 337 0 min 6,6 C 0,0 km/h (0 Bft)
19.05.2016 03:40 8,6 C 8,4 C 87 % 1009,4 hPa 0,0 mm 0,6 km/h (0 Bft) SW 225 0 min 6,6 C 8,0 km/h (2 Bft)
19.05.2016 03:45 8,7 C 8,5 C 87 % 1009,4 hPa 0,0 mm 0,9 km/h (0 Bft) SW 225 0 min 6,7 C 0,0 km/h (0 Bft)
19.05.2016 03:50 8,7 C 8,5 C 87 % 1009,4 hPa 0,0 mm 2,4 km/h (1 Bft) SW 225 0 min 6,7 C 7,2 km/h (2 Bft)
19.05.2016 03:55 8,7 C 8,5 C 87 % 1009,2 hPa 0,0 mm 5,1 km/h (1 Bft) S 180 0 min 6,7 C 10,7 km/h (2 Bft)
19.05.2016 04:00 8,7 C 8,5 C 86 % 1009,2 hPa 0,0 mm 6,0 km/h (2 Bft) SW 225 0 min 6,5 C 7,2 km/h (2 Bft)
19.05.2016 04:05 8,8 C 8,5 C 86 % 1009,2 hPa 0,0 mm 7,2 km/h (2 Bft) SW 225 0 min 6,6 C 10,1 km/h (2 Bft)
19.05.2016 04:10 8,7 C 8,4 C 86 % 1009,2 hPa 0,0 mm 6,6 km/h (2 Bft) S-SW 202 0 min 6,5 C 6,3 km/h (2 Bft)
19.05.2016 04:15 8,6 C 8,3 C 86 % 1009,2 hPa 0,0 mm 6,3 km/h (2 Bft) SW 225 0 min 6,4 C 6,9 km/h (2 Bft)
19.05.2016 04:20 8,5 C 8,3 C 85 % 1009,2 hPa 0,0 mm 5,4 km/h (1 Bft) SW 225 0 min 6,1 C 5,7 km/h (1 Bft)
19.05.2016 04:25 8,4 C 8,2 C 85 % 1009,2 hPa 0,0 mm 4,2 km/h (1 Bft) S-SO 157 0 min 6,0 C 0,0 km/h (0 Bft)
19.05.2016 04:30 8,4 C 8,1 C 86 % 1009,2 hPa 0,0 mm 3,9 km/h (1 Bft) W-SW 247 0 min 6,2 C 5,1 km/h (1 Bft)
19.05.2016 04:35 8,3 C 8,1 C 86 % 1009,0 hPa 0,0 mm 3,9 km/h (1 Bft) S 180 0 min 6,1 C 6,0 km/h (2 Bft)
19.05.2016 04:40 8,2 C 8,0 C 86 % 1009,0 hPa 0,0 mm 3,3 km/h (1 Bft) W-SW 247 0 min 6,0 C 3,3 km/h (1 Bft)
19.05.2016 04:45 8,2 C 8,0 C 86 % 1009,0 hPa 0,0 mm 1,8 km/h (1 Bft) SO 135 0 min 6,0 C 3,6 km/h (1 Bft)
19.05.2016 04:50 8,2 C 8,0 C 86 % 1009,0 hPa 0,0 mm 1,8 km/h (1 Bft) S-SO 157 0 min 6,0 C 3,9 km/h (1 Bft)
19.05.2016 04:55 8,3 C 8,0 C 87 % 1008,9 hPa 0,0 mm 1,8 km/h (1 Bft) S 180 0 min 6,3 C 6,0 km/h (2 Bft)
19.05.2016 05:00 8,5 C 8,2 C 86 % 1008,9 hPa 0,0 mm 2,7 km/h (1 Bft) W-SW 247 0 min 6,3 C 3,6 km/h (1 Bft)
19.05.2016 05:01 8,3 C 8,0 C 86 % 1008,9 hPa 0,0 mm 2,1 km/h (1 Bft) S-SO 157 0 min 6,1 C 0,0 km/h (0 Bft)
19.05.2016 05:02 8,3 C 8,0 C 86 % 1008,9 hPa 0,0 mm 2,1 km/h (1 Bft) S-SO 157 0 min 6,1 C 0,0 km/h (0 Bft)
19.05.2016 05:05 8,3 C 8,0 C 86 % 1008,9 hPa 0,0 mm 2,1 km/h (1 Bft) S-SO 157 0 min 6,1 C 0,0 km/h (0 Bft)
19.05.2016 05:10 8,2 C 8,0 C 86 % 1008,9 hPa 0,0 mm 0,9 km/h (0 Bft) SO 135 0 min 6,0 C 0,0 km/h (0 Bft)
19.05.2016 05:15 8,2 C 8,0 C 87 % 1008,9 hPa 0,0 mm 0,3 km/h (0 Bft) S 180 0 min 6,2 C 4,5 km/h (1 Bft)
19.05.2016 05:20 8,2 C 8,0 C 87 % 1008,9 hPa 0,0 mm 2,1 km/h (1 Bft) S 180 0 min 6,2 C 7,5 km/h (2 Bft)
19.05.2016 05:25 8,2 C 8,0 C 86 % 1008,9 hPa 0,0 mm 3,0 km/h (1 Bft) S 180 0 min 6,0 C 10,7 km/h (2 Bft)
19.05.2016 05:30 8,4 C 8,1 C 86 % 1008,9 hPa 0,0 mm 2,7 km/h (1 Bft) SW 225 0 min 6,2 C 3,0 km/h (1 Bft)
19.05.2016 05:35 8,2 C 7,9 C 86 % 1008,9 hPa 0,0 mm 1,8 km/h (1 Bft) W-SW 247 0 min 6,0 C 0,0 km/h (0 Bft)
19.05.2016 05:40 8,1 C 7,9 C 86 % 1008,9 hPa 0,0 mm 0,3 km/h (0 Bft) O-NO 67 0 min 5,9 C 0,0 km/h (0 Bft)
19.05.2016 05:45 7,9 C 7,7 C 86 % 1008,9 hPa 0,0 mm 0,0 km/h (0 Bft) O 90 0 min 5,7 C 0,0 km/h (0 Bft)
19.05.2016 05:50 8,0 C 7,8 C 86 % 1008,9 hPa 0,0 mm 0,0 km/h (0 Bft) SO 135 0 min 5,8 C 0,0 km/h (0 Bft)
19.05.2016 05:55 8,0 C 7,8 C 86 % 1008,9 hPa 0,0 mm 0,0 km/h (0 Bft) O-NO 67 0 min 5,8 C 0,0 km/h (0 Bft)
19.05.2016 06:00 7,9 C 7,7 C 86 % 1008,9 hPa 0,0 mm 0,0 km/h (0 Bft) O-SO 112 0 min 5,7 C 0,0 km/h (0 Bft)
19.05.2016 06:05 8,0 C 7,8 C 86 % 1008,9 hPa 0,0 mm 0,0 km/h (0 Bft) O 90 0 min 5,8 C 0,0 km/h (0 Bft)
19.05.2016 06:10 8,0 C 7,8 C 87 % 1008,9 hPa 0,0 mm 0,0 km/h (0 Bft) O 90 0 min 6,0 C 0,0 km/h (0 Bft)
19.05.2016 06:15 8,0 C 7,8 C 87 % 1009,1 hPa 0,0 mm 0,0 km/h (0 Bft) O-SO 112 0 min 6,0 C 0,0 km/h (0 Bft)
19.05.2016 06:20 8,1 C 7,9 C 87 % 1009,1 hPa 0,0 mm 0,0 km/h (0 Bft) O-SO 112 0 min 6,1 C 0,0 km/h (0 Bft)
19.05.2016 06:25 8,1 C 7,9 C 87 % 1009,1 hPa 0,0 mm 0,0 km/h (0 Bft) O 90 0 min 6,1 C 0,0 km/h (0 Bft)
19.05.2016 06:30 8,1 C 7,9 C 87 % 1009,1 hPa 0,0 mm 0,0 km/h (0 Bft) S 180 0 min 6,1 C 0,0 km/h (0 Bft)
19.05.2016 06:35 8,2 C 8,0 C 87 % 1009,1 hPa 0,0 mm 0,0 km/h (0 Bft) S-SO 157 0 min 6,2 C 0,0 km/h (0 Bft)
19.05.2016 06:40 8,2 C 8,0 C 88 % 1009,1 hPa 0,0 mm 0,0 km/h (0 Bft) O-SO 112 0 min 6,3 C 0,0 km/h (0 Bft)
19.05.2016 06:45 8,3 C 8,1 C 88 % 1009,1 hPa 0,0 mm 0,0 km/h (0 Bft) W-NW 292 0 min 6,4 C 0,0 km/h (0 Bft)
19.05.2016 06:50 8,4 C 8,2 C 88 % 1009,1 hPa 0,0 mm 0,0 km/h (0 Bft) NO 45 0 min 6,5 C 0,0 km/h (0 Bft)
19.05.2016 06:55 8,4 C 8,2 C 87 % 1009,2 hPa 0,0 mm 0,6 km/h (0 Bft) W 270 0 min 6,4 C 0,0 km/h (0 Bft)
19.05.2016 07:00 8,4 C 8,2 C 87 % 1009,2 hPa 0,0 mm 1,2 km/h (1 Bft) SO 135 0 min 6,4 C 0,0 km/h (0 Bft)
19.05.2016 07:05 8,3 C 8,1 C 87 % 1009,2 hPa 0,0 mm 0,6 km/h (0 Bft) O-SO 112 0 min 6,3 C 0,0 km/h (0 Bft)
19.05.2016 07:10 8,3 C 8,1 C 87 % 1009,2 hPa 0,0 mm 0,0 km/h (0 Bft) O 90 0 min 6,3 C 0,0 km/h (0 Bft)
19.05.2016 07:15 8,4 C 8,2 C 87 % 1009,2 hPa 0,0 mm 0,3 km/h (0 Bft) N-NO 22 0 min 6,4 C 0,0 km/h (0 Bft)
19.05.2016 07:20 8,4 C 8,2 C 87 % 1009,2 hPa 0,0 mm 0,3 km/h (0 Bft) S 180 0 min 6,4 C 0,0 km/h (0 Bft)
19.05.2016 07:25 8,4 C 8,2 C 87 % 1009,2 hPa 0,0 mm 0,3 km/h (0 Bft) S-SO 157 0 min 6,4 C 0,0 km/h (0 Bft)
19.05.2016 07:30 8,4 C 8,2 C 87 % 1009,2 hPa 0,0 mm 0,3 km/h (0 Bft) SW 225 0 min 6,4 C 0,0 km/h (0 Bft)
19.05.2016 07:35 8,5 C 8,3 C 87 % 1009,4 hPa 0,0 mm 0,0 km/h (0 Bft) SW 225 0 min 6,5 C 0,0 km/h (0 Bft)
19.05.2016 07:40 8,4 C 8,2 C 87 % 1009,4 hPa 0,0 mm 0,3 km/h (0 Bft) S 180 0 min 6,4 C 0,0 km/h (0 Bft)
19.05.2016 07:45 8,4 C 8,2 C 86 % 1009,4 hPa 0,0 mm 0,3 km/h (0 Bft) N-NO 22 0 min 6,2 C 0,0 km/h (0 Bft)
19.05.2016 07:50 8,4 C 8,2 C 86 % 1009,4 hPa 0,0 mm 0,3 km/h (0 Bft) SO 135 0 min 6,2 C 0,0 km/h (0 Bft)
19.05.2016 07:55 8,3 C 8,1 C 86 % 1009,6 hPa 0,0 mm 0,6 km/h (0 Bft) SW 225 0 min 6,1 C 3,3 km/h (1 Bft)
19.05.2016 08:00 8,3 C 8,1 C 86 % 1009,6 hPa 0,0 mm 1,2 km/h (1 Bft) S-SW 202 0 min 6,1 C 3,3 km/h (1 Bft)
19.05.2016 08:01 8,3 C 8,1 C 86 % 1009,6 hPa 0,0 mm 0,9 km/h (0 Bft) SW 225 0 min 6,1 C 0,0 km/h (0 Bft)
19.05.2016 08:03 8,3 C 8,1 C 86 % 1009,6 hPa 0,0 mm 0,9 km/h (0 Bft) SW 225 0 min 6,1 C 0,0 km/h (0 Bft)
19.05.2016 08:05 8,3 C 8,1 C 86 % 1009,6 hPa 0,0 mm 0,9 km/h (0 Bft) SW 225 0 min 6,1 C 0,0 km/h (0 Bft)
19.05.2016 08:10 8,3 C 8,1 C 86 % 1009,6 hPa 0,0 mm 1,2 km/h (1 Bft) W-SW 247 0 min 6,1 C 6,9 km/h (2 Bft)
19.05.2016 08:15 8,3 C 8,1 C 86 % 1009,9 hPa 0,0 mm 2,1 km/h (1 Bft) N-NO 22 0 min 6,1 C 3,3 km/h (1 Bft)
19.05.2016 08:20 8,4 C 8,1 C 86 % 1009,9 hPa 0,0 mm 3,0 km/h (1 Bft) W-SW 247 0 min 6,2 C 5,4 km/h (1 Bft)
19.05.2016 08:25 8,4 C 8,1 C 86 % 1009,9 hPa 0,0 mm 3,0 km/h (1 Bft) W 270 0 min 6,2 C 0,0 km/h (0 Bft)
19.05.2016 08:30 8,4 C 8,2 C 85 % 1009,9 hPa 0,7 mm 2,4 km/h (1 Bft) N-NO 22 0 min 6,0 C 3,0 km/h (1 Bft)
19.05.2016 08:35 8,4 C 8,2 C 85 % 1009,9 hPa 0,0 mm 1,8 km/h (1 Bft) W 270 0 min 6,0 C 11,9 km/h (2 Bft)
19.05.2016 08:40 8,4 C 8,2 C 85 % 1009,9 hPa 0,0 mm 2,4 km/h (1 Bft) W 270 0 min 6,0 C 0,0 km/h (0 Bft)
19.05.2016 08:45 8,4 C 8,2 C 85 % 1009,9 hPa 0,0 mm 3,9 km/h (1 Bft) W 270 0 min 6,0 C 11,9 km/h (2 Bft)
19.05.2016 08:50 8,4 C 8,2 C 85 % 1009,9 hPa 0,0 mm 5,1 km/h (1 Bft) SW 225 0 min 6,0 C 18,5 km/h (3 Bft)
19.05.2016 08:55 8,2 C 7,9 C 84 % 1010,2 hPa 0,0 mm 8,0 km/h (2 Bft) NW 315 0 min 5,7 C 6,9 km/h (2 Bft)
19.05.2016 09:00 8,2 C 7,9 C 84 % 1010,2 hPa 0,0 mm 7,7 km/h (2 Bft) W-SW 247 0 min 5,7 C 3,9 km/h (1 Bft)
19.05.2016 09:05 8,1 C 7,9 C 85 % 1010,2 hPa 0,0 mm 5,1 km/h (1 Bft) W 270 0 min 5,7 C 9,5 km/h (2 Bft)
19.05.2016 09:10 8,0 C 7,8 C 85 % 1010,2 hPa 0,0 mm 4,8 km/h (1 Bft) S 180 0 min 5,6 C 7,2 km/h (2 Bft)
19.05.2016 09:15 7,8 C 7,6 C 85 % 1010,6 hPa 0,0 mm 6,0 km/h (2 Bft) N-NW 337 0 min 5,4 C 3,3 km/h (1 Bft)
19.05.2016 09:20 7,8 C 7,6 C 85 % 1010,6 hPa 0,0 mm 6,0 km/h (2 Bft) W-SW 247 0 min 5,4 C 3,0 km/h (1 Bft)
19.05.2016 09:25 7,6 C 7,5 C 84 % 1010,6 hPa 0,0 mm 6,0 km/h (2 Bft) W 270 0 min 5,1 C 11,9 km/h (2 Bft)
19.05.2016 09:30 7,5 C 7,3 C 84 % 1010,6 hPa 0,0 mm 6,6 km/h (2 Bft) W 270 0 min 5,0 C 10,4 km/h (2 Bft)
19.05.2016 09:35 7,2 C 7,0 C 84 % 1010,9 hPa 0,7 mm 6,9 km/h (2 Bft) W-SW 247 0 min 4,7 C 11,3 km/h (2 Bft)
19.05.2016 09:40 7,1 C 6,9 C 84 % 1010,9 hPa 0,0 mm 6,9 km/h (2 Bft) S 180 0 min 4,6 C 10,7 km/h (2 Bft)
19.05.2016 09:45 6,9 C 6,8 C 85 % 1010,9 hPa 0,0 mm 6,0 km/h (2 Bft) W-SW 247 0 min 4,6 C 5,1 km/h (1 Bft)
19.05.2016 09:50 6,8 C 6,7 C 85 % 1010,9 hPa 0,0 mm 5,1 km/h (1 Bft) S 180 0 min 4,5 C 11,6 km/h (2 Bft)
19.05.2016 09:55 6,7 C 6,5 C 85 % 1011,4 hPa 0,7 mm 5,4 km/h (1 Bft) S 180 0 min 4,4 C 17,0 km/h (3 Bft)
19.05.2016 10:00 6,5 C 6,4 C 84 % 1011,4 hPa 0,0 mm 6,0 km/h (2 Bft) NW 315 0 min 4,0 C 13,7 km/h (3 Bft)
19.05.2016 10:05 6,3 C 6,1 C 84 % 1011,4 hPa 0,7 mm 6,6 km/h (2 Bft) W-NW 292 0 min 3,8 C 7,5 km/h (2 Bft)
19.05.2016 10:10 6,2 C 6,0 C 84 % 1011,4 hPa 0,0 mm 6,9 km/h (2 Bft) W 270 0 min 3,7 C 18,2 km/h (3 Bft)
19.05.2016 10:15 6,1 C 5,9 C 84 % 1011,3 hPa 0,7 mm 6,3 km/h (2 Bft) SO 135 0 min 3,6 C 37,6 km/h (5 Bft)
19.05.2016 10:20 6,0 C 5,8 C 84 % 1011,3 hPa 0,0 mm 6,0 km/h (2 Bft) SW 225 0 min 3,5 C 7,5 km/h (2 Bft)
19.05.2016 10:25 6,0 C 5,8 C 84 % 1011,3 hPa 0,0 mm 4,2 km/h (1 Bft) SW 225 0 min 3,5 C 6,3 km/h (2 Bft)
19.05.2016 10:30 5,9 C 5,7 C 85 % 1011,3 hPa 0,7 mm 5,4 km/h (1 Bft) W 270 0 min 3,6 C 8,6 km/h (2 Bft)
19.05.2016 10:35 5,9 C 5,7 C 86 % 1011,8 hPa 0,0 mm 6,0 km/h (2 Bft) S 180 0 min 3,7 C 8,9 km/h (2 Bft)
19.05.2016 10:40 5,9 C 5,7 C 86 % 1011,8 hPa 0,0 mm 5,4 km/h (1 Bft) W-SW 247 0 min 3,7 C 8,0 km/h (2 Bft)
19.05.2016 10:45 6,0 C 5,8 C 85 % 1011,8 hPa 0,7 mm 3,9 km/h (1 Bft) SW 225 0 min 3,7 C 5,1 km/h (1 Bft)
19.05.2016 10:50 6,0 C 5,9 C 85 % 1011,8 hPa 0,0 mm 3,9 km/h (1 Bft) W 270 0 min 3,7 C 0,0 km/h (0 Bft)
19.05.2016 10:55 6,0 C 5,8 C 85 % 1011,8 hPa 0,0 mm 6,3 km/h (2 Bft) NW 315 0 min 3,7 C 7,2 km/h (2 Bft)
19.05.2016 11:00 6,1 C 5,9 C 85 % 1011,8 hPa 0,7 mm 5,4 km/h (1 Bft) O-SO 112 0 min 3,8 C 6,6 km/h (2 Bft)
19.05.2016 11:01 6,1 C 6,0 C 85 % 1011,8 hPa 0,0 mm 4,2 km/h (1 Bft) W 270 0 min 3,8 C 3,0 km/h (1 Bft)
19.05.2016 11:04 6,1 C 6,0 C 85 % 1011,8 hPa 0,0 mm 4,2 km/h (1 Bft) W 270 0 min 3,8 C 3,0 km/h (1 Bft)
19.05.2016 11:05 6,1 C 6,0 C 85 % 1011,8 hPa 0,0 mm 4,2 km/h (1 Bft) W 270 0 min 3,8 C 3,0 km/h (1 Bft)
19.05.2016 11:10 6,2 C 6,1 C 85 % 1011,8 hPa 0,0 mm 5,1 km/h (1 Bft) S 180 0 min 3,9 C 12,2 km/h (2 Bft)
19.05.2016 11:15 6,4 C 6,3 C 85 % 1011,9 hPa 0,0 mm 3,0 km/h (1 Bft) W-SW 247 0 min 4,1 C 4,5 km/h (1 Bft)
19.05.2016 11:20 6,5 C 6,4 C 85 % 1011,9 hPa 0,0 mm 3,0 km/h (1 Bft) S 180 0 min 4,2 C 3,0 km/h (1 Bft)
19.05.2016 11:25 6,6 C 6,5 C 85 % 1011,9 hPa 0,7 mm 3,3 km/h (1 Bft) SO 135 0 min 4,3 C 11,6 km/h (2 Bft)
19.05.2016 11:30 6,6 C 6,5 C 85 % 1011,9 hPa 0,0 mm 3,0 km/h (1 Bft) S 180 0 min 4,3 C 3,3 km/h (1 Bft)
19.05.2016 11:35 6,7 C 6,6 C 85 % 1012,1 hPa 0,0 mm 3,3 km/h (1 Bft) NW 315 0 min 4,4 C 7,2 km/h (2 Bft)
19.05.2016 11:40 6,7 C 6,6 C 85 % 1012,1 hPa 0,0 mm 3,9 km/h (1 Bft) SW 225 0 min 4,4 C 8,3 km/h (2 Bft)
19.05.2016 11:45 6,7 C 6,6 C 85 % 1012,1 hPa 0,0 mm 6,0 km/h (2 Bft) NW 315 0 min 4,4 C 6,9 km/h (2 Bft)
19.05.2016 11:50 6,9 C 6,8 C 85 % 1012,1 hPa 0,0 mm 5,4 km/h (1 Bft) W-SW 247 0 min 4,6 C 7,2 km/h (2 Bft)
19.05.2016 11:55 7,0 C 6,9 C 84 % 1012,1 hPa 0,0 mm 4,2 km/h (1 Bft) W-NW 292 0 min 4,5 C 5,4 km/h (1 Bft)
19.05.2016 12:00 6,9 C 6,8 C 84 % 1012,1 hPa 0,0 mm 4,2 km/h (1 Bft) W 270 0 min 4,4 C 0,0 km/h (0 Bft)
19.05.2016 12:05 7,0 C 6,9 C 84 % 1012,1 hPa 0,7 mm 4,8 km/h (1 Bft) NW 315 0 min 4,5 C 9,8 km/h (2 Bft)
19.05.2016 12:10 6,9 C 6,7 C 84 % 1012,1 hPa 0,0 mm 6,9 km/h (2 Bft) NW 315 0 min 4,4 C 15,5 km/h (3 Bft)
19.05.2016 12:15 7,1 C 6,9 C 83 % 1012,3 hPa 0,0 mm 6,9 km/h (2 Bft) W-SW 247 0 min 4,4 C 3,6 km/h (1 Bft)
19.05.2016 12:20 7,2 C 7,1 C 83 % 1012,3 hPa 0,0 mm 5,1 km/h (1 Bft) SW 225 0 min 4,5 C 4,2 km/h (1 Bft)
19.05.2016 12:25 7,2 C 7,1 C 83 % 1012,3 hPa 0,0 mm 6,0 km/h (2 Bft) SW 225 0 min 4,5 C 6,0 km/h (2 Bft)
19.05.2016 12:30 7,3 C 7,2 C 83 % 1012,3 hPa 0,0 mm 6,6 km/h (2 Bft) NW 315 0 min 4,6 C 5,1 km/h (1 Bft)
19.05.2016 12:35 7,4 C 7,3 C 83 % 1012,4 hPa 0,0 mm 5,1 km/h (1 Bft) W 270 0 min 4,7 C 3,9 km/h (1 Bft)
19.05.2016 12:40 7,5 C 7,4 C 83 % 1012,4 hPa 0,0 mm 4,8 km/h (1 Bft) W-SW 247 0 min 4,8 C 5,7 km/h (1 Bft)
19.05.2016 12:45 7,7 C 7,6 C 83 % 1012,4 hPa 0,0 mm 3,9 km/h (1 Bft) W-NW 292 0 min 5,0 C 4,5 km/h (1 Bft)
19.05.2016 12:50 7,7 C 7,6 C 83 % 1012,4 hPa 0,0 mm 3,6 km/h (1 Bft) W-SW 247 0 min 5,0 C 6,6 km/h (2 Bft)
19.05.2016 12:55 7,8 C 7,7 C 83 % 1012,6 hPa 0,0 mm 2,7 km/h (1 Bft) SW 225 0 min 5,1 C 7,2 km/h (2 Bft)
19.05.2016 13:00 7,9 C 7,8 C 82 % 1012,6 hPa 0,0 mm 1,8 km/h (1 Bft) W-NW 292 0 min 5,0 C 0,0 km/h (0 Bft)
19.05.2016 13:05 8,1 C 8,0 C 82 % 1012,6 hPa 0,0 mm 1,5 km/h (1 Bft) S 180 0 min 5,2 C 0,0 km/h (0 Bft)
19.05.2016 13:10 8,3 C 8,2 C 82 % 1012,6 hPa 0,0 mm 2,1 km/h (1 Bft) NW 315 0 min 5,4 C 8,0 km/h (2 Bft)
19.05.2016 13:15 8,5 C 8,4 C 82 % 1012,6 hPa 0,0 mm 3,9 km/h (1 Bft) W-NW 292 0 min 5,6 C 4,8 km/h (1 Bft)
19.05.2016 13:20 8,3 C 8,3 C 81 % 1012,6 hPa 0,7 mm 3,9 km/h (1 Bft) W 270 0 min 5,2 C 3,6 km/h (1 Bft)
19.05.2016 13:25 8,3 C 8,2 C 81 % 1012,6 hPa 0,0 mm 1,8 km/h (1 Bft) S 180 0 min 5,2 C 4,2 km/h (1 Bft)
19.05.2016 13:30 8,1 C 8,1 C 81 % 1012,6 hPa 0,0 mm 1,8 km/h (1 Bft) NW 315 0 min 5,0 C 8,6 km/h (2 Bft)
19.05.2016 13:35 8,2 C 8,1 C 81 % 1012,8 hPa 0,0 mm 3,0 km/h (1 Bft) W 270 0 min 5,1 C 8,3 km/h (2 Bft)
19.05.2016 13:40 8,2 C 8,1 C 81 % 1012,8 hPa 0,0 mm 4,2 km/h (1 Bft) O 90 0 min 5,1 C 11,6 km/h (2 Bft)
19.05.2016 13:45 8,1 C 7,9 C 80 % 1012,8 hPa 0,0 mm 5,4 km/h (1 Bft) W-SW 247 0 min 4,9 C 0,0 km/h (0 Bft)
19.05.2016 13:50 8,2 C 8,0 C 81 % 1012,8 hPa 0,0 mm 4,5 km/h (1 Bft) S 180 0 min 5,1 C 0,0 km/h (0 Bft)
19.05.2016 13:55 8,2 C 8,1 C 81 % 1013,1 hPa 0,0 mm 2,4 km/h (1 Bft) W-SW 247 0 min 5,1 C 6,3 km/h (2 Bft)
19.05.2016 14:00 8,0 C 7,9 C 80 % 1013,1 hPa 0,0 mm 3,6 km/h (1 Bft) SW 225 0 min 4,8 C 12,2 km/h (2 Bft)
19.05.2016 14:01 8,1 C 8,0 C 80 % 1013,1 hPa 0,0 mm 3,9 km/h (1 Bft) W-SW 247 0 min 4,9 C 5,4 km/h (1 Bft)
19.05.2016 14:05 8,1 C 8,0 C 80 % 1013,1 hPa 0,0 mm 3,9 km/h (1 Bft) W-SW 247 0 min 4,9 C 5,4 km/h (1 Bft)
19.05.2016 14:10 8,3 C 8,1 C 80 % 1013,1 hPa 0,0 mm 4,2 km/h (1 Bft) W-NW 292 0 min 5,1 C 7,5 km/h (2 Bft)
19.05.2016 14:15 8,5 C 8,3 C 80 % 1013,1 hPa 0,0 mm 4,2 km/h (1 Bft) NO 45 0 min 5,3 C 0,0 km/h (0 Bft)
19.05.2016 14:20 8,7 C 8,5 C 80 % 1013,1 hPa 0,0 mm 3,9 km/h (1 Bft) W 270 0 min 5,4 C 0,0 km/h (0 Bft)
19.05.2016 14:25 8,9 C 8,8 C 80 % 1013,1 hPa 0,7 mm 3,9 km/h (1 Bft) N-NW 337 0 min 5,6 C 8,0 km/h (2 Bft)
19.05.2016 14:30 8,9 C 8,8 C 80 % 1013,1 hPa 0,0 mm 5,1 km/h (1 Bft) W-NW 292 0 min 5,6 C 7,2 km/h (2 Bft)
19.05.2016 14:35 9,0 C 9,0 C 80 % 1013,3 hPa 0,0 mm 5,7 km/h (1 Bft) S-SW 202 0 min 5,7 C 9,2 km/h (2 Bft)
19.05.2016 14:40 9,1 C 9,0 C 80 % 1013,3 hPa 0,0 mm 5,1 km/h (1 Bft) SW 225 0 min 5,8 C 8,3 km/h (2 Bft)
19.05.2016 14:45 9,0 C 8,9 C 80 % 1013,3 hPa 0,0 mm 4,2 km/h (1 Bft) O-SO 112 0 min 5,7 C 6,0 km/h (2 Bft)
19.05.2016 14:50 8,8 C 8,7 C 80 % 1013,3 hPa 0,0 mm 5,4 km/h (1 Bft) W 270 0 min 5,5 C 9,5 km/h (2 Bft)
19.05.2016 14:55 9,0 C 8,9 C 80 % 1013,2 hPa 0,0 mm 7,2 km/h (2 Bft) W 270 0 min 5,7 C 15,2 km/h (3 Bft)
19.05.2016 15:00 9,3 C 9,1 C 80 % 1013,2 hPa 0,0 mm 7,7 km/h (2 Bft) SW 225 0 min 6,0 C 18,2 km/h (3 Bft)
19.05.2016 15:05 9,5 C 9,3 C 80 % 1013,2 hPa 0,0 mm 8,0 km/h (2 Bft) SW 225 0 min 6,2 C 9,2 km/h (2 Bft)
19.05.2016 15:10 9,5 C 9,5 C 80 % 1013,2 hPa 0,0 mm 7,5 km/h (2 Bft) W 270 0 min 6,2 C 7,2 km/h (2 Bft)
19.05.2016 15:15 9,7 C 9,6 C 80 % 1013,4 hPa 0,0 mm 6,9 km/h (2 Bft) W 270 0 min 6,4 C 3,0 km/h (1 Bft)
19.05.2016 15:20 9,6 C 9,6 C 80 % 1013,4 hPa 0,0 mm 6,6 km/h (2 Bft) N-NW 337 0 min 6,3 C 3,6 km/h (1 Bft)
19.05.2016 15:25 9,4 C 9,4 C 80 % 1013,4 hPa 0,0 mm 6,6 km/h (2 Bft) W 270 0 min 6,1 C 11,0 km/h (2 Bft)
19.05.2016 15:30 9,5 C 9,4 C 80 % 1013,4 hPa 0,0 mm 6,9 km/h (2 Bft) O 90 0 min 6,2 C 7,5 km/h (2 Bft)
19.05.2016 15:35 9,4 C 9,3 C 80 % 1013,6 hPa 0,0 mm 6,9 km/h (2 Bft) N-NW 337 0 min 6,1 C 14,9 km/h (3 Bft)
19.05.2016 15:40 9,1 C 9,1 C 79 % 1013,6 hPa 0,0 mm 6,6 km/h (2 Bft) W-SW 247 0 min 5,7 C 0,0 km/h (0 Bft)
19.05.2016 15:45 9,0 C 8,9 C 80 % 1013,6 hPa 0,0 mm 6,6 km/h (2 Bft) SW 225 0 min 5,7 C 8,3 km/h (2 Bft)
19.05.2016 15:50 8,9 C 8,8 C 80 % 1013,6 hPa 0,0 mm 5,1 km/h (1 Bft) W 270 0 min 5,6 C 8,3 km/h (2 Bft)
19.05.2016 15:55 8,6 C 8,5 C 80 % 1013,7 hPa 0,0 mm 3,9 km/h (1 Bft) N-NW 337 0 min 5,3 C 4,2 km/h (1 Bft)
19.05.2016 16:00 8,5 C 8,3 C 80 % 1013,7 hPa 0,0 mm 5,1 km/h (1 Bft) S-SW 202 0 min 5,3 C 15,8 km/h (3 Bft)
19.05.2016 16:05 8,3 C 8,1 C 80 % 1013,7 hPa 0,0 mm 4,8 km/h (1 Bft) W 270 0 min 5,1 C 6,0 km/h (2 Bft)
19.05.2016 16:10 8,3 C 8,1 C 80 % 1013,7 hPa 0,0 mm 5,1 km/h (1 Bft) W-NW 292 0 min 5,1 C 6,6 km/h (2 Bft)
19.05.2016 16:15 8,0 C 7,8 C 80 % 1013,8 hPa 0,0 mm 6,6 km/h (2 Bft) W-NW 292 0 min 4,8 C 12,8 km/h (3 Bft)
19.05.2016 16:20 8,0 C 7,8 C 81 % 1013,8 hPa 0,0 mm 6,9 km/h (2 Bft) SW 225 0 min 4,9 C 7,5 km/h (2 Bft)
19.05.2016 16:25 8,1 C 7,9 C 81 % 1013,8 hPa 0,0 mm 5,1 km/h (1 Bft) NW 315 0 min 5,0 C 8,3 km/h (2 Bft)
19.05.2016 16:30 7,9 C 7,7 C 81 % 1013,8 hPa 0,0 mm 4,5 km/h (1 Bft) W-SW 247 0 min 4,8 C 11,9 km/h (2 Bft)
19.05.2016 16:35 7,8 C 7,6 C 81 % 1014,1 hPa 0,0 mm 4,8 km/h (1 Bft) W 270 0 min 4,7 C 4,8 km/h (1 Bft)
19.05.2016 16:40 7,8 C 7,6 C 81 % 1014,1 hPa 0,0 mm 3,6 km/h (1 Bft) SW 225 0 min 4,7 C 7,7 km/h (2 Bft)
19.05.2016 16:45 7,9 C 7,7 C 82 % 1014,1 hPa 0,7 mm 1,2 km/h (1 Bft) W 270 0 min 5,0 C 3,0 km/h (1 Bft)
19.05.2016 16:50 7,9 C 7,7 C 82 % 1014,1 hPa 0,0 mm 1,2 km/h (1 Bft) NW 315 0 min 5,0 C 3,6 km/h (1 Bft)
19.05.2016 16:55 8,0 C 7,8 C 82 % 1014,1 hPa 0,0 mm 2,7 km/h (1 Bft) W-SW 247 0 min 5,1 C 6,3 km/h (2 Bft)
19.05.2016 17:00 8,0 C 7,8 C 82 % 1014,1 hPa 0,0 mm 3,3 km/h (1 Bft) SW 225 0 min 5,1 C 6,6 km/h (2 Bft)
19.05.2016 17:01 7,9 C 7,8 C 82 % 1014,1 hPa 0,0 mm 3,6 km/h (1 Bft) SW 225 0 min 5,0 C 6,3 km/h (2 Bft)
19.05.2016 17:06 8,0 C 7,8 C 82 % 1014,1 hPa 0,0 mm 3,6 km/h (1 Bft) W-SW 247 0 min 5,1 C 5,4 km/h (1 Bft)
19.05.2016 17:10 8,0 C 7,8 C 82 % 1014,1 hPa 0,0 mm 3,6 km/h (1 Bft) W-SW 247 0 min 5,1 C 5,4 km/h (1 Bft)
19.05.2016 17:15 7,9 C 7,8 C 82 % 1014,3 hPa 0,0 mm 3,6 km/h (1 Bft) W-SW 247 0 min 5,0 C 5,1 km/h (1 Bft)
19.05.2016 17:20 7,7 C 7,6 C 82 % 1014,3 hPa 0,0 mm 3,3 km/h (1 Bft) S-SO 157 0 min 4,8 C 5,1 km/h (1 Bft)
19.05.2016 17:25 7,7 C 7,5 C 82 % 1014,3 hPa 0,7 mm 3,0 km/h (1 Bft) W-NW 292 0 min 4,8 C 0,0 km/h (0 Bft)
19.05.2016 17:30 7,6 C 7,5 C 83 % 1014,3 hPa 0,0 mm 2,4 km/h (1 Bft) W 270 0 min 4,9 C 5,1 km/h (1 Bft)
19.05.2016 17:35 7,4 C 7,3 C 83 % 1014,5 hPa 0,7 mm 1,8 km/h (1 Bft) NW 315 0 min 4,7 C 0,0 km/h (0 Bft)
19.05.2016 17:40 7,4 C 7,3 C 83 % 1014,5 hPa 0,0 mm 2,7 km/h (1 Bft) W-SW 247 0 min 4,7 C 4,2 km/h (1 Bft)
19.05.2016 17:45 7,4 C 7,2 C 83 % 1014,5 hPa 0,0 mm 2,4 km/h (1 Bft) S-SW 202 0 min 4,7 C 6,6 km/h (2 Bft)
19.05.2016 17:50 7,3 C 7,2 C 83 % 1014,5 hPa 0,0 mm 3,6 km/h (1 Bft) W-SW 247 0 min 4,6 C 6,6 km/h (2 Bft)
19.05.2016 17:55 7,4 C 7,3 C 83 % 1014,6 hPa 0,0 mm 4,2 km/h (1 Bft) W-SW 247 0 min 4,7 C 3,6 km/h (1 Bft)
19.05.2016 18:00 7,4 C 7,3 C 83 % 1014,6 hPa 0,0 mm 4,2 km/h (1 Bft) SW 225 0 min 4,7 C 4,8 km/h (1 Bft)
19.05.2016 18:05 7,4 C 7,3 C 84 % 1014,6 hPa 0,7 mm 5,1 km/h (1 Bft) NW 315 0 min 4,9 C 10,7 km/h (2 Bft)
19.05.2016 18:10 7,5 C 7,3 C 84 % 1014,6 hPa 0,0 mm 4,8 km/h (1 Bft) W-SW 247 0 min 5,0 C 0,0 km/h (0 Bft)
19.05.2016 18:15 7,6 C 7,5 C 84 % 1014,8 hPa 0,0 mm 3,3 km/h (1 Bft) W-SW 247 0 min 5,1 C 0,0 km/h (0 Bft)
19.05.2016 18:20 7,6 C 7,5 C 84 % 1014,8 hPa 0,0 mm 2,1 km/h (1 Bft) NW 315 0 min 5,1 C 4,8 km/h (1 Bft)
19.05.2016 18:25 7,5 C 7,4 C 84 % 1014,8 hPa 0,0 mm 2,1 km/h (1 Bft) S 180 0 min 5,0 C 3,3 km/h (1 Bft)
19.05.2016 18:30 7,3 C 7,2 C 84 % 1014,8 hPa 0,0 mm 3,3 km/h (1 Bft) W-SW 247 0 min 4,8 C 10,7 km/h (2 Bft)
19.05.2016 18:35 7,1 C 6,9 C 84 % 1014,9 hPa 0,0 mm 5,1 km/h (1 Bft) N-NO 22 0 min 4,6 C 10,1 km/h (2 Bft)
19.05.2016 18:40 7,1 C 6,9 C 84 % 1014,9 hPa 0,0 mm 5,1 km/h (1 Bft) SW 225 0 min 4,6 C 0,0 km/h (0 Bft)
19.05.2016 18:45 7,1 C 6,9 C 84 % 1014,9 hPa 0,0 mm 3,3 km/h (1 Bft) SW 225 0 min 4,6 C 3,6 km/h (1 Bft)
19.05.2016 18:50 7,1 C 6,9 C 84 % 1014,9 hPa 0,0 mm 2,7 km/h (1 Bft) W-SW 247 0 min 4,6 C 10,4 km/h (2 Bft)
19.05.2016 18:55 7,1 C 6,9 C 84 % 1015,2 hPa 0,7 mm 4,5 km/h (1 Bft) S 180 0 min 4,6 C 10,1 km/h (2 Bft)
19.05.2016 19:00 7,1 C 6,9 C 84 % 1015,2 hPa 0,0 mm 5,7 km/h (1 Bft) W-SW 247 0 min 4,6 C 3,6 km/h (1 Bft)
19.05.2016 19:05 7,1 C 6,8 C 84 % 1015,2 hPa 0,0 mm 7,5 km/h (2 Bft) NW 315 0 min 4,6 C 7,5 km/h (2 Bft)
19.05.2016 19:10 7,1 C 6,8 C 84 % 1015,2 hPa 0,0 mm 7,5 km/h (2 Bft) W 270 0 min 4,6 C 12,5 km/h (3 Bft)
19.05.2016 19:15 7,3 C 7,1 C 85 % 1015,4 hPa 0,0 mm 5,1 km/h (1 Bft) W 270 0 min 4,9 C 3,6 km/h (1 Bft)
19.05.2016 19:20 7,2 C 7,0 C 85 % 1015,4 hPa 0,0 mm 5,4 km/h (1 Bft) W-SW 247 0 min 4,9 C 7,5 km/h (2 Bft)
19.05.2016 19:25 7,1 C 6,9 C 85 % 1015,4 hPa 0,0 mm 5,7 km/h (1 Bft) SW 225 0 min 4,8 C 8,0 km/h (2 Bft)
19.05.2016 19:30 7,0 C 6,8 C 85 % 1015,4 hPa 0,0 mm 5,4 km/h (1 Bft) SW 225 0 min 4,7 C 5,4 km/h (1 Bft)
19.05.2016 19:35 6,9 C 6,7 C 85 % 1015,6 hPa 0,0 mm 5,1 km/h (1 Bft) W-SW 247 0 min 4,6 C 3,0 km/h (1 Bft)
19.05.2016 19:40 6,8 C 6,6 C 85 % 1015,6 hPa 0,0 mm 5,7 km/h (1 Bft) S 180 0 min 4,5 C 8,6 km/h (2 Bft)
19.05.2016 19:45 6,9 C 6,7 C 85 % 1015,6 hPa 0,0 mm 5,7 km/h (1 Bft) S-SW 202 0 min 4,6 C 11,0 km/h (2 Bft)
19.05.2016 19:50 6,9 C 6,7 C 85 % 1015,6 hPa 0,0 mm 5,4 km/h (1 Bft) W 270 0 min 4,6 C 3,3 km/h (1 Bft)
19.05.2016 19:55 6,8 C 6,6 C 85 % 1015,7 hPa 0,0 mm 5,4 km/h (1 Bft) W-SW 247 0 min 4,5 C 6,3 km/h (2 Bft)
19.05.2016 20:00 6,8 C 6,6 C 85 % 1015,7 hPa 0,0 mm 4,5 km/h (1 Bft) S-SO 157 0 min 4,5 C 0,0 km/h (0 Bft)
19.05.2016 20:05 6,7 C 6,5 C 85 % 1015,7 hPa 0,0 mm 3,0 km/h (1 Bft) O 90 0 min 4,4 C 0,0 km/h (0 Bft)
19.05.2016 20:06 6,6 C 6,5 C 86 % 1015,7 hPa 0,0 mm 0,6 km/h (0 Bft) SW 225 0 min 4,4 C 0,0 km/h (0 Bft)
19.05.2016 20:07 6,6 C 6,5 C 86 % 1015,7 hPa 0,0 mm 0,6 km/h (0 Bft) SW 225 0 min 4,4 C 0,0 km/h (0 Bft)
19.05.2016 20:10 6,6 C 6,5 C 86 % 1015,7 hPa 0,0 mm 0,6 km/h (0 Bft) SW 225 0 min 4,4 C 0,0 km/h (0 Bft)
19.05.2016 20:15 6,7 C 6,5 C 86 % 1016,1 hPa 0,0 mm 0,0 km/h (0 Bft) N-NO 22 0 min 4,5 C 0,0 km/h (0 Bft)
19.05.2016 20:20 6,6 C 6,5 C 86 % 1016,1 hPa 0,0 mm 0,0 km/h (0 Bft) O-SO 112 0 min 4,4 C 0,0 km/h (0 Bft)
19.05.2016 20:25 6,6 C 6,4 C 86 % 1016,1 hPa 0,0 mm 0,3 km/h (0 Bft) SO 135 0 min 4,4 C 0,0 km/h (0 Bft)
19.05.2016 20:30 6,6 C 6,4 C 86 % 1016,1 hPa 0,0 mm 0,6 km/h (0 Bft) SW 225 0 min 4,4 C 0,0 km/h (0 Bft)
19.05.2016 20:35 6,5 C 6,3 C 86 % 1016,4 hPa 0,0 mm 0,6 km/h (0 Bft) SO 135 0 min 4,3 C 0,0 km/h (0 Bft)
19.05.2016 20:40 6,5 C 6,3 C 87 % 1016,4 hPa 0,0 mm 0,9 km/h (0 Bft) SW 225 0 min 4,5 C 6,0 km/h (2 Bft)
19.05.2016 20:45 6,4 C 6,2 C 87 % 1016,4 hPa 0,0 mm 3,3 km/h (1 Bft) W-SW 247 0 min 4,4 C 7,7 km/h (2 Bft)
19.05.2016 20:50 6,4 C 6,2 C 87 % 1016,4 hPa 0,0 mm 5,1 km/h (1 Bft) SW 225 0 min 4,4 C 10,7 km/h (2 Bft)
19.05.2016 20:55 6,4 C 6,1 C 87 % 1016,8 hPa 0,0 mm 6,6 km/h (2 Bft) W-SW 247 0 min 4,4 C 12,5 km/h (3 Bft)
19.05.2016 21:00 6,4 C 6,0 C 87 % 1016,8 hPa 0,0 mm 7,5 km/h (2 Bft) NO 45 0 min 4,4 C 8,3 km/h (2 Bft)
19.05.2016 21:05 6,4 C 6,2 C 87 % 1016,8 hPa 0,0 mm 5,7 km/h (1 Bft) W-SW 247 0 min 4,4 C 9,5 km/h (2 Bft)
19.05.2016 21:10 6,4 C 6,1 C 87 % 1016,8 hPa 0,0 mm 6,6 km/h (2 Bft) W-NW 292 0 min 4,4 C 7,5 km/h (2 Bft)
19.05.2016 21:15 6,4 C 6,0 C 87 % 1017,0 hPa 0,0 mm 7,7 km/h (2 Bft) SW 225 0 min 4,4 C 11,0 km/h (2 Bft)
19.05.2016 21:20 6,4 C 6,1 C 87 % 1017,0 hPa 0,0 mm 7,2 km/h (2 Bft) W-SW 247 0 min 4,4 C 8,0 km/h (2 Bft)
19.05.2016 21:25 6,4 C 6,1 C 87 % 1017,0 hPa 0,0 mm 6,9 km/h (2 Bft) W-SW 247 0 min 4,4 C 0,0 km/h (0 Bft)
19.05.2016 21:30 6,3 C 6,1 C 87 % 1017,0 hPa 0,7 mm 5,7 km/h (1 Bft) S 180 0 min 4,3 C 12,2 km/h (2 Bft)
19.05.2016 21:35 6,3 C 6,1 C 87 % 1017,1 hPa 0,0 mm 5,1 km/h (1 Bft) W-SW 247 0 min 4,3 C 11,3 km/h (2 Bft)
19.05.2016 21:40 6,3 C 6,0 C 87 % 1017,1 hPa 0,0 mm 6,9 km/h (2 Bft) SW 225 0 min 4,3 C 11,9 km/h (2 Bft)
19.05.2016 21:45 6,3 C 6,0 C 87 % 1017,1 hPa 0,0 mm 6,9 km/h (2 Bft) W-SW 247 0 min 4,3 C 0,0 km/h (0 Bft)
19.05.2016 21:50 6,3 C 6,1 C 87 % 1017,1 hPa 0,0 mm 6,0 km/h (2 Bft) S 180 0 min 4,3 C 0,0 km/h (0 Bft)
19.05.2016 21:55 6,3 C 6,1 C 87 % 1017,4 hPa 0,0 mm 3,6 km/h (1 Bft) SW 225 0 min 4,3 C 0,0 km/h (0 Bft)
19.05.2016 22:00 6,3 C 6,1 C 87 % 1017,4 hPa 0,0 mm 2,7 km/h (1 Bft) S 180 0 min 4,3 C 6,6 km/h (2 Bft)
19.05.2016 22:05 6,3 C 6,1 C 87 % 1017,4 hPa 0,0 mm 5,4 km/h (1 Bft) N 360 0 min 4,3 C 4,5 km/h (1 Bft)
19.05.2016 22:10 6,3 C 6,0 C 87 % 1017,4 hPa 0,0 mm 7,2 km/h (2 Bft) S 180 0 min 4,3 C 9,5 km/h (2 Bft)
19.05.2016 22:15 6,3 C 6,1 C 87 % 1017,6 hPa 0,0 mm 3,9 km/h (1 Bft) W-SW 247 0 min 4,3 C 6,3 km/h (2 Bft)
19.05.2016 22:20 6,2 C 6,1 C 87 % 1017,6 hPa 0,0 mm 4,2 km/h (1 Bft) W-SW 247 0 min 4,2 C 7,7 km/h (2 Bft)
19.05.2016 22:25 6,2 C 6,1 C 88 % 1017,6 hPa 0,7 mm 6,0 km/h (2 Bft) SW 225 0 min 4,4 C 6,9 km/h (2 Bft)
19.05.2016 22:30 6,3 C 6,0 C 88 % 1017,6 hPa 0,0 mm 6,9 km/h (2 Bft) W 270 0 min 4,5 C 9,8 km/h (2 Bft)
19.05.2016 22:35 6,3 C 6,1 C 88 % 1017,8 hPa 0,0 mm 5,4 km/h (1 Bft) W-SW 247 0 min 4,5 C 5,4 km/h (1 Bft)
19.05.2016 22:40 6,3 C 6,1 C 88 % 1017,8 hPa 0,0 mm 4,8 km/h (1 Bft) S-SO 157 0 min 4,5 C 8,9 km/h (2 Bft)
19.05.2016 22:45 6,3 C 5,9 C 88 % 1017,8 hPa 0,0 mm 8,3 km/h (2 Bft) W-SW 247 0 min 4,5 C 10,7 km/h (2 Bft)
19.05.2016 22:50 6,4 C 5,8 C 88 % 1017,8 hPa 0,0 mm 11,0 km/h (2 Bft) W-SW 247 0 min 4,6 C 14,3 km/h (3 Bft)
19.05.2016 22:55 6,4 C 5,8 C 88 % 1017,8 hPa 0,0 mm 10,7 km/h (2 Bft) S-SO 157 0 min 4,6 C 20,9 km/h (4 Bft)
19.05.2016 23:00 6,4 C 5,8 C 88 % 1017,8 hPa 0,0 mm 11,6 km/h (2 Bft) W-SW 247 0 min 4,6 C 10,7 km/h (2 Bft)
19.05.2016 23:05 6,4 C 5,8 C 88 % 1017,8 hPa 0,0 mm 11,0 km/h (2 Bft) W-SW 247 0 min 4,6 C 13,4 km/h (3 Bft)
19.05.2016 23:06 6,3 C 5,8 C 88 % 1017,8 hPa 0,0 mm 10,7 km/h (2 Bft) SW 225 0 min 4,5 C 13,1 km/h (3 Bft)
19.05.2016 23:08 6,3 C 5,8 C 88 % 1017,8 hPa 0,0 mm 10,7 km/h (2 Bft) SW 225 0 min 4,5 C 13,1 km/h (3 Bft)
19.05.2016 23:10 6,3 C 5,8 C 88 % 1017,8 hPa 0,0 mm 10,7 km/h (2 Bft) SW 225 0 min 4,5 C 13,1 km/h (3 Bft)
19.05.2016 23:15 6,3 C 5,8 C 88 % 1017,8 hPa 0,7 mm 11,0 km/h (2 Bft) SW 225 0 min 4,5 C 11,9 km/h (2 Bft)
19.05.2016 23:20 6,3 C 5,8 C 88 % 1017,8 hPa 0,0 mm 11,3 km/h (2 Bft) S 180 0 min 4,5 C 7,7 km/h (2 Bft)
19.05.2016 23:25 6,3 C 5,8 C 88 % 1017,8 hPa 0,0 mm 10,1 km/h (2 Bft) S-SW 202 0 min 4,5 C 13,4 km/h (3 Bft)
19.05.2016 23:30 6,3 C 5,9 C 88 % 1017,8 hPa 0,0 mm 9,2 km/h (2 Bft) W-SW 247 0 min 4,5 C 13,4 km/h (3 Bft)
19.05.2016 23:35 6,3 C 5,9 C 88 % 1017,8 hPa 0,0 mm 9,5 km/h (2 Bft) SW 225 0 min 4,5 C 13,1 km/h (3 Bft)
19.05.2016 23:40 6,4 C 5,9 C 88 % 1017,8 hPa 0,0 mm 10,4 km/h (2 Bft) SW 225 0 min 4,6 C 14,9 km/h (3 Bft)
19.05.2016 23:45 6,5 C 5,9 C 89 % 1017,8 hPa 0,0 mm 11,3 km/h (2 Bft) W 270 0 min 4,8 C 8,9 km/h (2 Bft)
19.05.2016 23:50 6,5 C 6,0 C 89 % 1017,8 hPa 0,0 mm 11,0 km/h (2 Bft) SW 225 0 min 4,8 C 12,8 km/h (3 Bft)
19.05.2016 23:55 6,7 C 6,1 C 88 % 1018,1 hPa 0,0 mm 10,4 km/h (2 Bft) S-SW 202 0 min 4,9 C 8,3 km/h (2 Bft)
_ Min-Zeit 10:40 10:40 15:40 02:50 - 20:20 - - - 10:25 21:55
Minimum _ 5,9 C 5,7 C 79 % 1008,8 hPa - 0,0 km/h (0 Bft) - - - 3,5 C 0,0 km/h (0 Bft)
_ Max-Zeit 15:15 15:20 23:50 23:55 23:15 23:00 - - 23:55 03:05 10:15
Maximum _ 9,7 C 9,6 C 89 % 1018,1 hPa 0,7 mm 11,6 km/h
W-SW (2 Bft)
- - 0 min 6,9 C 37,6 km/h
SO (5 Bft)
Durchschnitt _ 7,7 C 7,5 C 85 % 1012,3 hPa #15,1 mm 4,1 km/h (1 Bft) W-SW - #0 min. 5,2 C 5,7 km/h (1 Bft)